Regional Weather Roundup
Issued by NWS Boston, MA

Home | Current Version | Previous Version | Text Only | Print | Product List | Glossary On
Versions: 1 2 3 4 5 6 7 8 9 10 11 12 13 14 15 16 17 18 19 20 21 22 23 24 25 26 27 28 29 30 31 32 33 34 35 36 37 38 39 40 41 42 43 44 45 46 47 48 49 50
000
ASUS41 KBOX 281010
RWRBOX

REGIONAL WEATHER ROUNDUP
NATIONAL WEATHER SERVICE TAUNTON MA
600 AM EDT MON JUL 28 2014

NOTE:  "FAIR" INDICATES FEW OR NO CLOUDS BELOW 12,000 FEET WITH NO
SIGNIFICANT WEATHER AND/OR OBSTRUCTIONS TO VISIBILITY.  THE FOLLOWING
OBSERVATION LOCATIONS DO NOT REPORT PRESENT WEATHER...PROVINCETOWN...
SMITHFIELD...BLOCK ISLAND...KEENE...AND OXFORD.

MAZALL-281100-
EASTERN MASSACHUSETTS

CITY           SKY/WX    TMP DP  RH WIND       PRES   REMARKS
BOSTON         CLOUDY    69  68  96 SE5       29.62F FOG
BEVERLY        FOG       68  67  96 SE6       29.62F VSB 1/4
LAWRENCE       FOG       69  69 100 E3        29.64F VSB 1/4
BEDFORD        CLOUDY    70  70 100 S6        29.61F FOG
BLUE HILL        N/A     69  69 100 S10       29.63F
NORWOOD        CLOUDY    71  69  93 SE3       29.62F
MARSHFIELD     CLOUDY    72  72 100 S7        29.65S
PLYMOUTH       CLOUDY    71  68  90 S7        29.64F
TAUNTON        CLOUDY    73  70  90 SE3       29.62F
NEW BEDFORD    CLOUDY    71  70  96 S6        29.63F FOG
$$

MAZALL-281100-
CAPE COD AND THE ISLANDS

CITY           SKY/WX    TMP DP  RH WIND       PRES   REMARKS
FALMOUTH       FOG       72  70  94 S6        29.65F VSB 1/2
HYANNIS        CLOUDY    73  71  93 S7        29.64F FOG
CHATHAM        FOG       65  65 100 S5        29.67F VSB<1/4
PROVINCETOWN   CLOUDY    70  68  94 CALM      29.66R
NANTUCKET      FOG       68  66  94 SE8       29.66F VSB 1/4
MARTHAS VNYRD  FOG       70  70 100 S10       29.65F VSB 1/4
$$

MAZALL-281100-
CENTRAL AND WESTERN MASSACHUSETTS

CITY           SKY/WX    TMP DP  RH WIND       PRES   REMARKS
WORCESTER      FOG       66  66 100 SE5       29.63F VSB<1/4
FITCHBURG      CLOUDY    68  66  93 NE3       29.62F FOG
ORANGE         CLOUDY    66  66 100 SE5       29.60F
SPRINGFIELD    CLOUDY    68  68 100 E8        29.54F THUNDER
WESTFIELD      TSTM      68  66  93 S5        29.54F FOG
NORTH ADAMS    CLOUDY    65  64  97 CALM      29.58R FOG
PITTSFIELD     TSTM      66  64  93 SE10G20   29.60R VSB 3/4
$$

RIZALL-281100-
RHODE ISLAND

CITY           SKY/WX    TMP DP  RH WIND       PRES   REMARKS
PROVIDENCE     CLOUDY    72  71  97 S9        29.62S FOG
NEWPORT        CLOUDY    71  70  96 SE9       29.63F FOG
BLOCK ISLAND   CLOUDY    72  70  94 S10       29.63R
SMITHFIELD     CLOUDY    70  66  88 S5        29.64S VSB 1/2
WESTERLY       LGT RAIN  72  70  93 S9        29.63R FOG
$$

CTZALL-281100-
CONNECTICUT

CITY           SKY/WX    TMP DP  RH WIND       PRES   REMARKS
BRADLEY INTL   CLOUDY    71  68  90 SE10      29.54F FOG
HARTFORD       LGT RAIN  73  70  90 S8        29.55F
BRIDGEPORT     LGT RAIN  71  68  90 S10       29.56S
DANBURY        LGT RAIN  72  68  87 S6        29.57R
GROTON         RAIN      70  70 100 S12       29.60S FOG
NEW HAVEN      LGT RAIN  74  70  87 S8        29.56S
CHESTER        RAIN      72  72 100 SE8       29.58F
MERIDEN        RAIN      73  71  93 S5        29.55F FOG
WILLIMANTIC    LGT RAIN  71  70  96 S7        29.59F FOG
OXFORD         MOCLDY    70  66  88 S7        29.59S FOG
$$

MEZ002-015-021-024-NHZ003-005-008-011-012-014-VTZ005-008-281100-
NORTHERN NEW ENGLAND

CITY           SKY/WX    TMP DP  RH WIND       PRES   REMARKS
PORTLAND ME    FOG       66  65  96 SE6       29.66S VSB 3/4
BANGOR ME      FOG       66  65  96 S5        29.69R VSB 1/2
CONCORD NH     CLOUDY    68  67  96 CALM      29.63S FOG
MANCHESTER NH  CLOUDY    69  67  93 E5        29.60F FOG
NASHUA NH      CLOUDY    69  69 100 CALM      29.62F
PORTSMOUTH NH  FOG       66  65  97 NE5       29.62F VSB 1/16
JAFFREY NH     FOG       66  65  96 CALM      29.63F VSB 1/2
KEENE NH       CLOUDY    66  57  72 N3        29.58F
BURLINGTON VT  FOG       63  62  97 NE6       29.62S VSB 1
MT. WASHINGTON MOCLDY    52  45  76 W30         N/A
$$

NYZ052-076-281100-
EASTERN NEW YORK

CITY           SKY/WX    TMP DP  RH WIND       PRES   REMARKS
ALBANY         HVY RAIN  66  63  90 N3        29.57R FOG
NEW YORK CITY  CLOUDY    71  66  84 S7        29.54S
$$

ANZALL-281100-
MARINE OBSERVATIONS

STATION/POSITION TIME  TEMP    WIND        PRES    VSBY  WAVE
                       AIR SEA DIR/SP/G                  HT/PER
                 (UTC) (F)     (DEG/KT/KT) (MB)    (MI)  (FT/S)
BOSTON BUOY      NOT AVBL
BUZZARDS BAY     NOT AVBL
NANTUCKET SOUND  NOT AVBL
MASS BAY-STELLWA NOT AVBL
ISLE OF SHOALS   NOT AVBL
S OF BLOCK IS    NOT AVBL
$$

......................KEY.........................
  SKY/WX - SKY CONDITION/PRESENT WEATHER
  TMP    - TEMPERATURE IN FAHRENHEIT
  DWPT   - DEWPOINT IN FAHRENHEIT
  RH     - RELATIVE HUMIDITY IN PERCENT
  WIND   - DIRECTION AND SPEED IN MPH
  PRES   - MEAN SEA LEVEL PRESSURE IN INCHES OF HG
  WCI    - WIND CHILL INDEX
  VSB    - VISIBILITY IN MILES
  HX     - HEAT INDEX
  TC     - TEMPERATURE IN CELSIUS
  VRB    - VARIABLE WIND DIRECTION
  N/A    - NOT AVAILABLE



USA.gov is the U.S. government's official web portal to all federal, state and local government web resources and services.